Time,TemperatureF,DewpointF,PressureIn,WindDirection,WindDirectionDegrees,WindSpeedMPH,WindSpeedGustMPH,Humidity,HourlyPrecipIn,Conditions,Clouds,dailyrainin,SoftwareType,DateUTC
2013-06-19 00:01:00,67.0,42.0,29.88,WSW,251,14.0,31.0,40,0.00,,,0.00,,2013-06-19 07:01:00,
2013-06-19 00:11:00,66.0,42.0,29.87,WNW,288,16.0,26.0,41,0.00,,,0.00,,2013-06-19 07:11:00,
2013-06-19 00:22:00,66.0,42.0,29.87,West,267,14.0,24.0,41,0.00,,,0.00,,2013-06-19 07:22:00,
2013-06-19 00:33:00,65.0,42.0,29.86,WSW,254,12.0,26.0,43,0.00,,,0.00,,2013-06-19 07:33:00,
2013-06-19 00:43:00,65.0,42.0,29.84,West,264,15.0,24.0,43,0.00,,,0.00,,2013-06-19 07:43:00,
2013-06-19 00:53:00,65.0,42.0,29.84,West,264,15.0,24.0,43,0.00,,,0.00,,2013-06-19 07:53:00,
2013-06-19 01:01:00,65.0,42.0,29.83,WNW,288,17.0,33.0,43,0.00,,,0.00,,2013-06-19 08:01:00,
2013-06-19 01:11:00,65.0,41.0,29.83,WNW,290,19.0,35.0,42,0.00,,,0.00,,2013-06-19 08:11:00,
2013-06-19 01:22:00,64.0,42.0,29.84,West,261,13.0,31.0,44,0.00,,,0.00,,2013-06-19 08:22:00,
2013-06-19 01:33:00,63.0,41.0,29.83,West,262,16.0,31.0,45,0.00,,,0.00,,2013-06-19 08:33:00,
2013-06-19 01:42:00,63.0,42.0,29.81,WNW,295,21.0,38.0,46,0.00,,,0.00,,2013-06-19 08:42:00,
2013-06-19 01:53:00,63.0,42.0,29.81,WNW,295,21.0,38.0,46,0.00,,,0.00,,2013-06-19 08:53:00,
2013-06-19 02:01:00,61.0,43.0,29.79,WNW,303,22.0,42.0,51,0.00,,,0.00,,2013-06-19 09:01:00,
2013-06-19 02:11:00,61.0,43.0,29.79,WNW,303,22.0,42.0,51,0.00,,,0.00,,2013-06-19 09:11:00,
2013-06-19 02:22:00,61.0,43.0,29.79,WNW,303,25.0,42.0,51,0.00,,,0.00,,2013-06-19 09:22:00,
2013-06-19 02:34:00,60.0,43.0,29.78,WNW,302,24.0,40.0,53,0.00,,,0.00,,2013-06-19 09:34:00,
2013-06-19 02:43:00,59.0,42.0,29.78,WNW,298,25.0,41.0,54,0.00,,,0.00,,2013-06-19 09:43:00,
2013-06-19 02:53:00,59.0,43.0,29.79,WNW,297,27.0,43.0,55,0.00,,,0.00,,2013-06-19 09:53:00,
2013-06-19 03:01:00,58.0,41.0,29.80,WNW,301,27.0,40.0,54,0.00,,,0.00,,2013-06-19 10:01:00,
2013-06-19 03:11:00,58.0,41.0,29.80,WNW,301,27.0,40.0,54,0.00,,,0.00,,2013-06-19 10:11:00,
2013-06-19 03:22:00,59.0,41.0,29.80,WNW,301,21.0,37.0,51,0.00,,,0.00,,2013-06-19 10:22:00,
2013-06-19 03:33:00,59.0,41.0,29.80,WNW,301,21.0,37.0,51,0.00,,,0.00,,2013-06-19 10:33:00,
2013-06-19 03:42:00,61.0,41.0,29.81,WNW,299,21.0,37.0,47,0.00,,,0.00,,2013-06-19 10:42:00,
2013-06-19 03:52:00,60.0,40.0,29.83,WNW,302,9.0,35.0,48,0.00,,,0.00,,2013-06-19 10:52:00,
2013-06-19 04:01:00,60.0,41.0,29.86,SE,129,4.0,30.0,49,0.00,,,0.00,,2013-06-19 11:01:00,
2013-06-19 04:11:00,60.0,41.0,29.86,SE,129,4.0,30.0,49,0.00,,,0.00,,2013-06-19 11:11:00,
2013-06-19 04:22:00,57.0,41.0,29.88,SSW,195,7.0,21.0,54,0.00,,,0.00,,2013-06-19 11:22:00,
2013-06-19 04:32:00,57.0,41.0,29.89,West,261,6.0,12.0,54,0.00,,,0.00,,2013-06-19 11:32:00,
2013-06-19 04:42:00,57.0,41.0,29.90,West,280,10.0,18.0,54,0.00,,,0.00,,2013-06-19 11:42:00,
2013-06-19 04:54:00,56.0,40.0,29.88,WNW,296,21.0,29.0,55,0.00,,,0.00,,2013-06-19 11:54:00,
2013-06-19 05:01:00,56.0,40.0,29.89,West,279,19.0,33.0,55,0.00,,,0.00,,2013-06-19 12:01:00,
2013-06-19 05:11:00,56.0,41.0,29.89,West,277,21.0,33.0,56,0.00,,,0.00,,2013-06-19 12:11:00,
2013-06-19 05:22:00,55.0,40.0,29.87,WNW,282,22.0,33.0,57,0.00,,,0.00,,2013-06-19 12:22:00,
2013-06-19 05:34:00,55.0,40.0,29.90,WNW,294,24.0,36.0,57,0.00,,,0.00,,2013-06-19 12:34:00,
2013-06-19 05:44:00,55.0,40.0,29.90,WNW,294,24.0,36.0,57,0.00,,,0.00,,2013-06-19 12:44:00,
2013-06-19 05:52:00,55.0,40.0,29.90,WNW,294,24.0,36.0,57,0.00,,,0.00,,2013-06-19 12:52:00,
2013-06-19 06:02:00,54.0,40.0,29.91,West,278,22.0,33.0,60,0.00,,,0.00,,2013-06-19 13:02:00,
2013-06-19 06:11:00,54.0,40.0,29.91,WNW,282,26.0,35.0,60,0.00,,,0.00,,2013-06-19 13:11:00,
2013-06-19 06:22:00,54.0,40.0,29.91,WNW,282,26.0,35.0,60,0.00,,,0.00,,2013-06-19 13:22:00,
2013-06-19 06:33:00,54.0,40.0,29.91,WNW,282,26.0,35.0,60,0.00,,,0.00,,2013-06-19 13:33:00,
2013-06-19 06:42:00,54.0,40.0,29.91,WNW,282,26.0,35.0,60,0.00,,,0.00,,2013-06-19 13:42:00,
2013-06-19 06:53:00,54.0,40.0,29.90,WNW,293,26.0,37.0,59,0.00,,,0.00,,2013-06-19 13:53:00,
2013-06-19 07:02:00,54.0,39.0,29.89,WNW,285,26.0,35.0,57,0.00,,,0.00,,2013-06-19 14:02:00,
2013-06-19 07:11:00,54.0,39.0,29.89,WNW,285,26.0,35.0,57,0.00,,,0.00,,2013-06-19 14:11:00,
2013-06-19 07:22:00,55.0,39.0,29.90,WNW,290,25.0,34.0,54,0.00,,,0.00,,2013-06-19 14:22:00,
2013-06-19 07:33:00,55.0,38.0,29.91,West,281,23.0,33.0,53,0.00,,,0.00,,2013-06-19 14:33:00,
2013-06-19 07:43:00,55.0,38.0,29.91,West,276,26.0,36.0,52,0.00,,,0.00,,2013-06-19 14:43:00,
2013-06-19 07:53:00,55.0,38.0,29.91,West,276,26.0,36.0,52,0.00,,,0.00,,2013-06-19 14:53:00,
2013-06-19 08:01:00,56.0,38.0,29.91,West,269,26.0,39.0,50,0.00,,,0.00,,2013-06-19 15:01:00,
2013-06-19 08:11:00,56.0,38.0,29.91,West,269,26.0,39.0,50,0.00,,,0.00,,2013-06-19 15:11:00,
2013-06-19 08:22:00,56.0,38.0,29.91,West,269,26.0,39.0,50,0.00,,,0.00,,2013-06-19 15:22:00,
2013-06-19 08:33:00,56.0,38.0,29.91,West,269,26.0,39.0,50,0.00,,,0.00,,2013-06-19 15:33:00,
2013-06-19 08:42:00,59.0,38.0,29.89,WNW,284,23.0,35.0,46,0.00,,,0.00,,2013-06-19 15:42:00,
2013-06-19 08:53:00,60.0,39.0,29.88,WNW,283,21.0,35.0,45,0.00,,,0.00,,2013-06-19 15:53:00,
2013-06-19 09:01:00,61.0,39.0,29.89,WNW,283,19.0,34.0,44,0.00,,,0.00,,2013-06-19 16:01:00,
2013-06-19 09:11:00,63.0,38.0,29.89,WNW,289,22.0,38.0,39,0.00,,,0.00,,2013-06-19 16:11:00,
2013-06-19 09:21:00,64.0,37.0,29.89,WNW,287,22.0,34.0,36,0.00,,,0.00,,2013-06-19 16:21:00,
2013-06-19 09:33:00,65.0,37.0,29.89,WNW,290,20.0,35.0,35,0.00,,,0.00,,2013-06-19 16:33:00,
2013-06-19 09:43:00,66.0,37.0,29.91,WNW,297,16.0,29.0,34,0.00,,,0.00,,2013-06-19 16:43:00,
2013-06-19 09:52:00,66.0,36.0,29.90,WNW,287,19.0,30.0,33,0.00,,,0.00,,2013-06-19 16:52:00,
2013-06-19 10:02:00,66.0,35.0,29.89,WNW,295,20.0,34.0,32,0.00,,,0.00,,2013-06-19 17:02:00,
2013-06-19 10:11:00,66.0,35.0,29.89,WNW,295,20.0,34.0,32,0.00,,,0.00,,2013-06-19 17:11:00,
2013-06-19 10:22:00,67.0,35.0,29.89,WNW,293,20.0,33.0,31,0.00,,,0.00,,2013-06-19 17:22:00,
2013-06-19 10:33:00,67.0,35.0,29.88,WNW,295,24.0,37.0,31,0.00,,,0.00,,2013-06-19 17:33:00,
2013-06-19 10:43:00,67.0,35.0,29.88,WNW,293,25.0,37.0,31,0.00,,,0.00,,2013-06-19 17:43:00,
2013-06-19 10:53:00,67.0,35.0,29.88,WNW,296,25.0,39.0,31,0.00,,,0.00,,2013-06-19 17:53:00,
2013-06-19 11:01:00,68.0,35.0,29.87,WNW,297,26.0,41.0,30,0.00,,,0.00,,2013-06-19 18:01:00,
2013-06-19 11:11:00,69.0,35.0,29.87,WNW,296,28.0,41.0,29,0.00,,,0.00,,2013-06-19 18:11:00,
2013-06-19 11:23:00,69.0,35.0,29.86,WNW,296,29.0,45.0,29,0.00,,,0.00,,2013-06-19 18:23:00,
2013-06-19 11:33:00,69.0,34.0,29.86,WNW,293,29.0,41.0,27,0.00,,,0.00,,2013-06-19 18:33:00,
2013-06-19 11:43:00,70.0,34.0,29.87,WNW,301,25.0,40.0,26,0.00,,,0.00,,2013-06-19 18:43:00,
2013-06-19 11:52:00,70.0,34.0,29.87,WNW,295,25.0,40.0,26,0.00,,,0.00,,2013-06-19 18:52:00,
2013-06-19 12:01:00,71.0,33.0,29.85,WNW,297,27.0,40.0,25,0.00,,,0.00,,2013-06-19 19:01:00,
2013-06-19 12:11:00,71.0,32.0,29.85,NW,306,25.0,41.0,24,0.00,,,0.00,,2013-06-19 19:11:00,
2013-06-19 12:22:00,72.0,31.0,29.86,WNW,301,15.0,40.0,22,0.00,,,0.00,,2013-06-19 19:22:00,
2013-06-19 12:32:00,73.0,30.0,29.85,WNW,301,24.0,40.0,20,0.00,,,0.00,,2013-06-19 19:32:00,
2013-06-19 12:43:00,74.0,29.0,29.86,WNW,298,25.0,37.0,19,0.00,,,0.00,,2013-06-19 19:43:00,
2013-06-19 12:52:00,74.0,28.0,29.86,WNW,288,24.0,40.0,18,0.00,,,0.00,,2013-06-19 19:52:00,
2013-06-19 13:02:00,74.0,29.0,29.86,WNW,297,27.0,41.0,19,0.00,,,0.00,,2013-06-19 20:02:00,
2013-06-19 13:11:00,75.0,29.0,29.86,WNW,296,26.0,39.0,18,0.00,,,0.00,,2013-06-19 20:11:00,
2013-06-19 13:22:00,74.0,29.0,29.87,WNW,292,28.0,46.0,19,0.00,,,0.00,,2013-06-19 20:22:00,
2013-06-19 13:33:00,74.0,30.0,29.87,WNW,294,29.0,42.0,20,0.00,,,0.00,,2013-06-19 20:33:00,
2013-06-19 13:42:00,74.0,32.0,29.88,WNW,291,27.0,40.0,21,0.00,,,0.00,,2013-06-19 20:42:00,
2013-06-19 13:52:00,74.0,30.0,29.86,WNW,298,25.0,40.0,20,0.00,,,0.00,,2013-06-19 20:52:00,
2013-06-19 14:01:00,74.0,32.0,29.86,WNW,298,27.0,41.0,21,0.00,,,0.00,,2013-06-19 21:01:00,
2013-06-19 14:11:00,75.0,31.0,29.86,WNW,296,31.0,42.0,20,0.00,,,0.00,,2013-06-19 21:11:00,
2013-06-19 14:22:00,75.0,32.0,29.86,WNW,296,30.0,47.0,21,0.00,,,0.00,,2013-06-19 21:22:00,
2013-06-19 14:33:00,75.0,31.0,29.85,WNW,292,29.0,40.0,20,0.00,,,0.00,,2013-06-19 21:33:00,
2013-06-19 14:44:00,75.0,31.0,29.87,WNW,293,27.0,40.0,20,0.00,,,0.00,,2013-06-19 21:44:00,
2013-06-19 14:52:00,75.0,32.0,29.86,NW,304,23.0,44.0,21,0.00,,,0.00,,2013-06-19 21:52:00,
2013-06-19 15:01:00,75.0,32.0,29.86,WNW,297,29.0,42.0,21,0.00,,,0.00,,2013-06-19 22:01:00,
2013-06-19 15:11:00,75.0,30.0,29.85,WNW,303,24.0,41.0,19,0.00,,,0.00,,2013-06-19 22:11:00,
2013-06-19 15:22:00,75.0,32.0,29.85,NW,304,22.0,39.0,21,0.00,,,0.00,,2013-06-19 22:22:00,
2013-06-19 15:34:00,75.0,34.0,29.85,NW,305,20.0,43.0,22,0.00,,,0.00,,2013-06-19 22:34:00,
2013-06-19 15:42:00,75.0,32.0,29.85,WNW,295,25.0,41.0,21,0.00,,,0.00,,2013-06-19 22:42:00,
2013-06-19 15:53:00,75.0,34.0,29.84,WNW,295,22.0,40.0,22,0.00,,,0.00,,2013-06-19 22:53:00,
2013-06-19 16:01:00,75.0,34.0,29.84,WNW,301,24.0,42.0,22,0.00,,,0.00,,2013-06-19 23:01:00,
2013-06-19 16:11:00,76.0,34.0,29.84,WNW,299,26.0,45.0,22,0.00,,,0.00,,2013-06-19 23:11:00,
2013-06-19 16:22:00,76.0,36.0,29.83,WNW,302,24.0,39.0,23,0.00,,,0.00,,2013-06-19 23:22:00,
2013-06-19 16:33:00,75.0,36.0,29.84,WNW,299,26.0,43.0,24,0.00,,,0.00,,2013-06-19 23:33:00,
2013-06-19 16:43:00,75.0,36.0,29.83,WNW,295,26.0,41.0,24,0.00,,,0.00,,2013-06-19 23:43:00,
2013-06-19 16:52:00,74.0,36.0,29.83,WNW,298,25.0,41.0,25,0.00,,,0.00,,2013-06-19 23:52:00,
2013-06-19 17:01:00,74.0,36.0,29.83,WNW,298,26.0,46.0,25,0.00,,,0.00,,2013-06-20 00:01:00,
2013-06-19 17:11:00,74.0,36.0,29.83,WNW,298,29.0,41.0,25,0.00,,,0.00,,2013-06-20 00:11:00,
2013-06-19 17:22:00,74.0,37.0,29.83,WNW,300,31.0,42.0,26,0.00,,,0.00,,2013-06-20 00:22:00,
2013-06-19 17:33:00,73.0,35.0,29.83,WNW,297,22.0,43.0,25,0.00,,,0.00,,2013-06-20 00:33:00,
2013-06-19 17:43:00,73.0,35.0,29.83,WNW,298,33.0,46.0,25,0.00,,,0.00,,2013-06-20 00:43:00,
2013-06-19 17:52:00,73.0,35.0,29.83,WNW,298,33.0,46.0,25,0.00,,,0.00,,2013-06-20 00:52:00,
2013-06-19 18:01:00,73.0,36.0,29.83,WNW,299,24.0,43.0,26,0.00,,,0.00,,2013-06-20 01:01:00,
2013-06-19 18:11:00,73.0,37.0,29.84,WNW,300,23.0,39.0,27,0.00,,,0.00,,2013-06-20 01:11:00,
2013-06-19 18:22:00,72.0,36.0,29.83,NW,311,15.0,42.0,27,0.00,,,0.00,,2013-06-20 01:22:00,
2013-06-19 18:33:00,72.0,37.0,29.84,NW,312,19.0,40.0,28,0.00,,,0.00,,2013-06-20 01:33:00,
2013-06-19 18:43:00,71.0,35.0,29.83,WNW,297,19.0,36.0,27,0.00,,,0.00,,2013-06-20 01:43:00,
2013-06-19 18:52:00,71.0,36.0,29.83,NW,318,14.0,39.0,28,0.00,,,0.00,,2013-06-20 01:52:00,
2013-06-19 19:02:00,70.0,36.0,29.83,NW,318,16.0,34.0,29,0.00,,,0.00,,2013-06-20 02:02:00,
2013-06-19 19:11:00,69.0,36.0,29.83,NW,306,15.0,40.0,30,0.00,,,0.00,,2013-06-20 02:11:00,
2013-06-19 19:23:00,69.0,37.0,29.83,NW,306,24.0,42.0,31,0.00,,,0.00,,2013-06-20 02:23:00,
2013-06-19 19:33:00,68.0,37.0,29.83,WNW,303,28.0,44.0,32,0.00,,,0.00,,2013-06-20 02:33:00,
2013-06-19 19:43:00,68.0,37.0,29.82,WNW,299,27.0,46.0,32,0.00,,,0.00,,2013-06-20 02:43:00,
2013-06-19 19:52:00,67.0,37.0,29.82,WNW,299,28.0,48.0,33,0.00,,,0.00,,2013-06-20 02:52:00,
2013-06-19 20:02:00,67.0,37.0,29.83,WNW,301,19.0,43.0,33,0.00,,,0.00,,2013-06-20 03:02:00,
2013-06-19 20:11:00,67.0,37.0,29.83,WNW,299,27.0,40.0,33,0.00,,,0.00,,2013-06-20 03:11:00,
2013-06-19 20:22:00,66.0,36.0,29.84,WNW,301,23.0,39.0,33,0.00,,,0.00,,2013-06-20 03:22:00,
2013-06-19 20:32:00,66.0,37.0,29.84,WNW,303,22.0,38.0,34,0.00,,,0.00,,2013-06-20 03:32:00,
2013-06-19 20:43:00,66.0,38.0,29.84,NW,307,15.0,41.0,35,0.00,,,0.00,,2013-06-20 03:43:00,
2013-06-19 20:53:00,65.0,37.0,29.83,NW,315,12.0,34.0,36,0.00,,,0.00,,2013-06-20 03:53:00,
2013-06-19 21:01:00,65.0,37.0,29.83,WNW,293,25.0,42.0,36,0.00,,,0.00,,2013-06-20 04:01:00,
2013-06-19 21:11:00,64.0,37.0,29.83,WNW,301,28.0,43.0,37,0.00,,,0.00,,2013-06-20 04:11:00,
2013-06-19 21:22:00,64.0,37.0,29.82,WNW,301,27.0,40.0,37,0.00,,,0.00,,2013-06-20 04:22:00,
2013-06-19 21:33:00,64.0,37.0,29.82,WNW,301,27.0,40.0,37,0.00,,,0.00,,2013-06-20 04:33:00,
2013-06-19 21:43:00,64.0,37.0,29.82,WNW,301,27.0,40.0,37,0.00,,,0.00,,2013-06-20 04:43:00,
2013-06-19 21:53:00,64.0,38.0,29.83,NW,306,24.0,43.0,38,0.00,,,0.00,,2013-06-20 04:53:00,
2013-06-19 22:01:00,64.0,38.0,29.83,NW,304,24.0,43.0,38,0.00,,,0.00,,2013-06-20 05:01:00,
2013-06-19 22:12:00,63.0,37.0,29.83,NW,309,22.0,41.0,38,0.00,,,0.00,,2013-06-20 05:12:00,
2013-06-19 22:22:00,63.0,38.0,29.82,NW,324,17.0,49.0,39,0.00,,,0.00,,2013-06-20 05:22:00,
2013-06-19 22:33:00,63.0,38.0,29.83,NW,309,25.0,42.0,39,0.00,,,0.00,,2013-06-20 05:33:00,
2013-06-19 22:43:00,63.0,38.0,29.84,NNW,328,16.0,39.0,40,0.00,,,0.00,,2013-06-20 05:43:00,
2013-06-19 22:52:00,63.0,38.0,29.85,NNW,333,15.0,35.0,40,0.00,,,0.00,,2013-06-20 05:52:00,
2013-06-19 23:01:00,63.0,39.0,29.85,NNW,329,15.0,29.0,41,0.00,,,0.00,,2013-06-20 06:01:00,
2013-06-19 23:11:00,63.0,39.0,29.81,NW,311,19.0,40.0,41,0.00,,,0.00,,2013-06-20 06:11:00,
2013-06-19 23:22:00,63.0,40.0,29.80,NNW,331,20.0,39.0,43,0.00,,,0.00,,2013-06-20 06:22:00,
2013-06-19 23:33:00,63.0,40.0,29.79,NW,306,28.0,44.0,43,0.00,,,0.00,,2013-06-20 06:33:00,
2013-06-19 23:43:00,63.0,40.0,29.80,NW,308,26.0,45.0,43,0.00,,,0.00,,2013-06-20 06:43:00,
2013-06-19 23:53:00,62.0,40.0,29.79,NW,314,24.0,43.0,44,0.00,,,0.00,,2013-06-20 06:53:00,